StationID,Date,MaxTemp,MinTemp,Precipitation,Snowfall,SnowDepth
"EGM00062378","1961-10-01",86.00,53.96,0.00,,
"EGM00062378","1961-10-02",87.98,64.04,0.00,,
"EGM00062378","1961-10-03",89.96,,0.00,,
"EGM00062378","1961-10-04",87.98,64.04,0.00,,
"EGM00062378","1961-10-05",86.00,64.04,0.00,,
"EGM00062378","1961-10-06",84.02,64.04,0.00,,
"EGM00062378","1961-10-07",82.04,60.98,0.00,,
"EGM00062378","1961-10-08",84.02,60.98,0.00,,
"EGM00062378","1961-10-09",84.02,59.00,0.00,,
"EGM00062378","1961-10-10",87.98,64.04,0.00,,
"EGM00062378","1961-10-11",87.98,62.96,0.00,,
"EGM00062378","1961-10-12",91.04,66.02,0.00,,
"EGM00062378","1961-10-13",86.00,66.02,0.00,,
"EGM00062378","1961-10-14",78.98,64.04,0.00,,
"EGM00062378","1961-10-15",78.98,59.00,0.00,,
"EGM00062378","1961-10-16",78.98,57.02,0.00,,
"EGM00062378","1961-10-17",78.98,57.02,0.00,,
"EGM00062378","1961-10-18",84.02,59.00,0.00,,
"EGM00062378","1961-10-19",82.04,64.04,0.00,,
"EGM00062378","1961-10-20",78.98,62.96,0.00,,
"EGM00062378","1961-10-21",78.98,60.98,0.00,,
"EGM00062378","1961-10-22",82.04,60.98,0.00,,
"EGM00062378","1961-10-23",86.00,62.96,0.00,,
"EGM00062378","1961-10-24",89.96,66.02,0.00,,
"EGM00062378","1961-10-25",86.00,68.00,0.00,,
"EGM00062378","1961-10-26",86.00,64.04,0.00,,
"EGM00062378","1961-10-27",80.96,62.96,0.00,,
"EGM00062378","1961-10-28",77.00,55.04,0.00,,
"EGM00062378","1961-10-29",78.98,59.00,0.00,,
"EGM00062378","1961-10-30",77.00,59.00,0.00,,
"EGM00062378","1961-10-31",77.00,57.02,,,
"EGM00062378","1961-11-01",78.98,59.00,0.00,,
"EGM00062378","1961-11-02",80.96,59.00,0.00,,
"EGM00062378","1961-11-03",78.98,64.04,0.00,,
"EGM00062378","1961-11-04",75.02,59.00,0.00,,
"EGM00062378","1961-11-05",77.00,59.00,0.00,,
"EGM00062378","1961-11-06",80.96,59.00,0.00,,
"EGM00062378","1961-11-07",78.98,60.98,0.00,,
"EGM00062378","1961-11-08",78.98,60.98,0.00,,
"EGM00062378","1961-11-09",80.96,64.04,0.00,,
"EGM00062378","1961-11-10",75.02,60.98,0.00,,
"EGM00062378","1961-11-11",75.02,55.04,0.00,,
"EGM00062378","1961-11-12",84.02,59.00,0.00,,
"EGM00062378","1961-11-13",82.04,62.96,0.00,,
"EGM00062378","1961-11-14",84.02,60.98,0.00,,
"EGM00062378","1961-11-15",86.00,59.00,0.00,,
"EGM00062378","1961-11-16",86.00,59.00,0.00,,
"EGM00062378","1961-11-17",82.04,57.02,0.00,,
"EGM00062378","1961-11-18",78.98,55.04,0.00,,
"EGM00062378","1961-11-19",78.98,57.02,0.00,,
"EGM00062378","1961-11-20",78.98,53.96,0.00,,
"EGM00062378","1961-11-21",75.02,57.02,0.00,,
"EGM00062378","1961-11-22",62.96,50.00,5.00,,
"EGM00062378","1961-11-23",62.96,44.96,0.00,,
"EGM00062378","1961-11-24",64.04,44.96,0.00,,
"EGM00062378","1961-11-25",66.02,39.02,0.00,,
"EGM00062378","1961-11-26",68.00,48.02,0.00,,
"EGM00062378","1961-11-27",69.98,50.00,0.00,,
"EGM00062378","1961-11-28",71.96,53.96,0.00,,
"EGM00062378","1961-11-29",73.04,55.04,0.00,,
"EGM00062378","1961-11-30",75.02,53.96,0.00,,
"EGM00062378","1961-12-01",78.98,55.04,0.00,,
"EGM00062378","1961-12-02",71.96,51.98,0.00,,
"EGM00062378","1961-12-03",78.98,51.98,0.00,,
"EGM00062378","1961-12-04",68.00,55.04,0.00,,
"EGM00062378","1961-12-05",68.00,51.98,0.00,,
"EGM00062378","1961-12-07",66.02,51.98,0.00,,
"EGM00062378","1961-12-08",71.96,50.00,0.00,,
"EGM00062378","1961-12-09",64.04,50.00,0.00,,
"EGM00062378","1961-12-10",64.04,48.02,0.00,,
"EGM00062378","1961-12-11",66.02,48.02,0.00,,
"EGM00062378","1961-12-12",55.04,51.98,0.00,,
"EGM00062378","1961-12-13",60.98,51.98,170.00,,
"EGM00062378","1961-12-14",64.04,53.96,20.00,,
"EGM00062378","1961-12-15",66.02,50.00,10.00,,
"EGM00062378","1961-12-16",68.00,51.98,0.00,,
"EGM00062378","1961-12-17",66.02,46.04,0.00,,
"EGM00062378","1961-12-18",66.02,48.02,0.00,,
"EGM00062378","1961-12-19",69.98,48.02,0.00,,
"EGM00062378","1961-12-20",64.04,46.04,0.00,,
"EGM00062378","1961-12-21",60.98,48.02,0.00,,
"EGM00062378","1961-12-22",64.04,46.04,0.00,,
"EGM00062378","1961-12-24",64.04,42.98,0.00,,
"EGM00062378","1961-12-25",62.96,46.04,0.00,,
"EGM00062378","1961-12-26",64.04,42.98,0.00,,
"EGM00062378","1961-12-27",68.00,50.00,0.00,,
"EGM00062378","1961-12-28",71.96,48.02,0.00,,
"EGM00062378","1961-12-29",73.04,51.98,0.00,,
"EGM00062378","1961-12-30",71.96,50.00,0.00,,
"EGM00062378","1961-12-31",68.00,51.98,0.00,,
"EGM00062378","1962-01-01",68.00,51.98,0.00,,
"EGM00062378","1962-01-02",68.00,51.98,0.00,,
"EGM00062378","1962-01-03",69.98,50.00,0.00,,
"EGM00062378","1962-01-04",68.00,53.96,0.00,,
"EGM00062378","1962-01-05",69.98,51.98,0.00,,
"EGM00062378","1962-01-06",60.98,51.98,5.00,,
"EGM00062378","1962-01-07",60.98,46.04,5.00,,
"EGM00062378","1962-01-08",66.02,50.00,20.00,,
"EGM00062378","1962-01-09",66.02,50.00,0.00,,
"EGM00062378","1962-01-10",62.96,48.02,0.00,,
"EGM00062378","1962-01-11",62.96,44.96,0.00,,
"EGM00062378","1962-01-12",60.98,48.02,0.00,,
"EGM00062378","1962-01-13",66.02,44.96,0.00,,
"EGM00062378","1962-01-14",60.98,50.00,0.00,,
"EGM00062378","1962-01-15",66.02,46.04,20.00,,
"EGM00062378","1962-01-16",68.00,48.02,0.00,,
"EGM00062378","1962-01-17",68.00,51.98,0.00,,
"EGM00062378","1962-01-18",71.96,48.02,0.00,,
"EGM00062378","1962-01-19",69.98,46.04,0.00,,
"EGM00062378","1962-01-20",66.02,50.00,0.00,,
"EGM00062378","1962-01-21",66.02,48.02,0.00,,
"EGM00062378","1962-01-22",66.02,44.96,10.00,,
"EGM00062378","1962-01-23",71.96,50.00,0.00,,
"EGM00062378","1962-01-24",73.04,53.96,0.00,,
"EGM00062378","1962-01-25",66.02,50.00,0.00,,
"EGM00062378","1962-01-26",60.98,44.96,3.00,,
"EGM00062378","1962-01-27",66.02,42.98,10.00,,
"EGM00062378","1962-01-28",60.98,48.02,10.00,,
"EGM00062378","1962-01-29",64.04,44.96,0.00,,
"EGM00062378","1962-01-30",68.00,46.04,0.00,,
"EGM00062378","1962-01-31",73.04,51.98,0.00,,
"EGM00062378","1962-02-01",66.02,51.98,0.00,,
"EGM00062378","1962-02-02",75.02,50.00,0.00,,
"EGM00062378","1962-02-03",59.00,48.02,0.00,,
"EGM00062378","1962-02-04",64.04,44.96,0.00,,
"EGM00062378","1962-02-05",57.02,42.98,0.00,,
"EGM00062378","1962-02-06",59.00,44.96,0.00,,
"EGM00062378","1962-02-07",64.04,42.98,0.00,,
"EGM00062378","1962-02-08",62.96,42.98,0.00,,
"EGM00062378","1962-02-09",64.04,46.04,0.00,,
"EGM00062378","1962-02-10",68.00,50.00,0.00,,
"EGM00062378","1962-02-11",68.00,48.02,0.00,,
"EGM00062378","1962-02-12",69.98,51.98,0.00,,
"EGM00062378","1962-02-13",73.04,53.96,0.00,,
"EGM00062378","1962-02-14",73.04,55.04,0.00,,
"EGM00062378","1962-02-15",71.96,50.00,0.00,,
"EGM00062378","1962-02-16",77.00,51.98,0.00,,
"EGM00062378","1962-02-17",62.96,46.04,0.00,,
"EGM00062378","1962-02-18",64.04,39.02,0.00,,
"EGM00062378","1962-02-19",64.04,50.00,0.00,,
"EGM00062378","1962-02-20",55.04,42.98,3.00,,
"EGM00062378","1962-02-21",57.02,46.04,0.00,,
"EGM00062378","1962-02-22",66.02,42.98,3.00,,
"EGM00062378","1962-02-23",71.96,48.02,0.00,,
"EGM00062378","1962-02-24",75.02,44.96,0.00,,
"EGM00062378","1962-02-25",75.02,50.00,0.00,,
"EGM00062378","1962-02-26",71.96,53.96,0.00,,
"EGM00062378","1962-02-27",69.98,51.98,0.00,,
"EGM00062378","1962-02-28",69.98,48.02,0.00,,
"EGM00062378","1962-03-01",77.00,50.00,0.00,,
"EGM00062378","1962-03-02",80.96,57.02,0.00,,
"EGM00062378","1962-03-03",82.04,60.98,0.00,,
"EGM00062378","1962-03-04",80.96,60.98,0.00,,
"EGM00062378","1962-03-05",80.96,53.96,0.00,,
"EGM00062378","1962-03-06",82.04,53.96,0.00,,
"EGM00062378","1962-03-07",93.02,64.04,0.00,,
"EGM00062378","1962-03-08",69.98,57.02,0.00,,
"EGM00062378","1962-03-09",69.98,50.00,0.00,,
"EGM00062378","1962-03-10",64.04,51.98,0.00,,
"EGM00062378","1962-03-11",71.96,50.00,0.00,,
"EGM00062378","1962-03-12",77.00,44.96,0.00,,
"EGM00062378","1962-03-13",78.98,60.98,0.00,,
"EGM00062378","1962-03-14",84.02,51.98,0.00,,
"EGM00062378","1962-03-15",95.00,69.98,0.00,,
"EGM00062378","1962-03-16",68.00,55.04,0.00,,
"EGM00062378","1962-03-17",71.96,46.04,0.00,,
"EGM00062378","1962-03-18",78.98,53.96,0.00,,
"EGM00062378","1962-03-19",78.98,57.02,0.00,,
"EGM00062378","1962-03-20",75.02,51.98,0.00,,
"EGM00062378","1962-03-21",91.04,57.02,0.00,,
"EGM00062378","1962-03-22",96.98,66.02,0.00,,
"EGM00062378","1962-03-23",93.02,68.00,0.00,,
"EGM00062378","1962-03-24",84.02,60.98,0.00,,
"EGM00062378","1962-03-25",89.96,59.00,0.00,,
"EGM00062378","1962-03-26",86.00,62.96,0.00,,
"EGM00062378","1962-03-27",75.02,57.02,0.00,,
"EGM00062378","1962-03-28",73.04,51.98,0.00,,
"EGM00062378","1962-03-29",84.02,62.96,0.00,,
"EGM00062378","1962-03-30",82.04,,0.00,,
"EGM00062378","1962-03-31",75.02,57.02,0.00,,
"EGM00062378","1962-04-01",75.02,53.96,0.00,,
"EGM00062378","1962-04-02",89.96,55.04,0.00,,
"EGM00062378","1962-04-03",86.00,51.98,0.00,,
"EGM00062378","1962-04-04",75.02,53.96,0.00,,
"EGM00062378","1962-04-05",89.96,50.00,0.00,,
"EGM00062378","1962-04-06",95.00,62.96,0.00,,
"EGM00062378","1962-04-07",82.04,57.02,0.00,,
"EGM00062378","1962-04-08",77.00,57.02,0.00,,
"EGM00062378","1962-04-09",71.96,51.98,0.00,,
"EGM00062378","1962-04-10",75.02,50.00,0.00,,
"EGM00062378","1962-04-11",78.98,53.96,0.00,,
"EGM00062378","1962-04-12",86.00,57.02,0.00,,
"EGM00062378","1962-04-13",80.96,64.04,0.00,,
"EGM00062378","1962-04-14",75.02,57.02,0.00,,
"EGM00062378","1962-04-15",73.04,50.00,0.00,,
"EGM00062378","1962-04-16",77.00,50.00,0.00,,
"EGM00062378","1962-04-17",84.02,59.00,0.00,,
"EGM00062378","1962-04-18",77.00,53.96,0.00,,
"EGM00062378","1962-04-19",77.00,53.96,0.00,,
"EGM00062378","1962-04-20",75.02,55.04,0.00,,
"EGM00062378","1962-04-21",82.04,51.98,0.00,,
"EGM00062378","1962-04-22",82.04,55.04,0.00,,
"EGM00062378","1962-04-23",91.04,62.96,0.00,,
"EGM00062378","1962-04-24",89.96,68.00,0.00,,
"EGM00062378","1962-04-25",84.02,60.98,0.00,,
"EGM00062378","1962-04-26",73.04,57.02,0.00,,
"EGM00062378","1962-04-27",78.98,53.96,0.00,,
"EGM00062378","1962-04-28",78.98,53.96,0.00,,
"EGM00062378","1962-04-29",86.00,55.04,0.00,,
"EGM00062378","1962-04-30",98.96,64.04,0.00,,
"EGM00062378","1962-05-01",93.02,69.98,0.00,,
"EGM00062378","1962-05-02",102.02,66.02,0.00,,
"EGM00062378","1962-05-03",86.00,68.00,0.00,,
"EGM00062378","1962-05-04",80.96,55.04,0.00,,
"EGM00062378","1962-05-05",78.98,53.96,0.00,,
"EGM00062378","1962-05-06",89.96,60.98,0.00,,
"EGM00062378","1962-05-07",80.96,60.98,0.00,,
"EGM00062378","1962-05-08",77.00,57.02,0.00,,
"EGM00062378","1962-05-09",77.00,53.96,0.00,,
"EGM00062378","1962-05-10",80.96,59.00,0.00,,
"EGM00062378","1962-05-11",86.00,59.00,0.00,,
"EGM00062378","1962-05-12",89.96,60.98,0.00,,
"EGM00062378","1962-05-13",91.04,59.00,0.00,,
"EGM00062378","1962-05-14",91.04,60.98,0.00,,
"EGM00062378","1962-05-15",96.98,64.04,0.00,,
"EGM00062378","1962-05-16",104.00,69.98,0.00,,
"EGM00062378","1962-05-17",100.04,75.02,0.00,,
"EGM00062378","1962-05-18",93.02,66.02,0.00,,
"EGM00062378","1962-05-19",89.96,60.98,0.00,,
"EGM00062378","1962-05-20",93.02,60.98,0.00,,
"EGM00062378","1962-05-21",96.98,64.04,0.00,,
"EGM00062378","1962-05-22",96.98,68.00,0.00,,
"EGM00062378","1962-05-23",91.04,66.02,0.00,,
"EGM00062378","1962-05-24",87.98,64.04,0.00,,
"EGM00062378","1962-05-25",87.98,60.98,0.00,,
"EGM00062378","1962-05-26",93.02,64.04,0.00,,
"EGM00062378","1962-05-27",87.98,66.02,0.00,,
"EGM00062378","1962-05-28",89.96,62.96,0.00,,
"EGM00062378","1962-05-29",89.96,62.96,0.00,,
"EGM00062378","1962-05-30",98.96,62.96,0.00,,
"EGM00062378","1962-05-31",95.00,66.02,0.00,,
"EGM00062378","1962-06-01",96.98,66.02,0.00,,
"EGM00062378","1962-06-02",98.96,68.00,0.00,,
"EGM00062378","1962-06-03",98.96,68.00,0.00,,
"EGM00062378","1962-06-04",100.04,71.96,0.00,,
"EGM00062378","1962-06-05",96.98,64.04,0.00,,
"EGM00062378","1962-06-06",107.96,68.00,0.00,,
"EGM00062378","1962-06-07",98.96,71.96,0.00,,
"EGM00062378","1962-06-08",93.02,69.98,0.00,,
"EGM00062378","1962-06-09",96.98,66.02,0.00,,
"EGM00062378","1962-06-10",102.02,69.98,0.00,,
"EGM00062378","1962-06-11",111.02,77.00,0.00,,
"EGM00062378","1962-06-12",96.98,69.98,0.00,,
"EGM00062378","1962-06-13",93.02,68.00,0.00,,
"EGM00062378","1962-06-14",87.98,64.04,0.00,,
"EGM00062378","1962-06-15",91.04,64.04,0.00,,
"EGM00062378","1962-06-16",93.02,66.02,0.00,,
"EGM00062378","1962-06-17",93.02,64.04,0.00,,
"EGM00062378","1962-06-18",93.02,68.00,0.00,,
"EGM00062378","1962-06-19",93.02,68.00,0.00,,
"EGM00062378","1962-06-20",95.00,66.02,0.00,,
"EGM00062378","1962-06-21",105.98,75.02,0.00,,
"EGM00062378","1962-06-22",102.02,75.02,0.00,,
"EGM00062378","1962-06-23",95.00,71.96,0.00,,
"EGM00062378","1962-06-24",93.02,69.98,0.00,,
"EGM00062378","1962-06-25",95.00,69.98,0.00,,
"EGM00062378","1962-06-26",95.00,66.02,0.00,,
"EGM00062378","1962-06-27",96.98,69.98,0.00,,
"EGM00062378","1962-06-28",95.00,68.00,0.00,,
"EGM00062378","1962-06-29",95.00,69.98,0.00,,
"EGM00062378","1962-06-30",95.00,66.02,0.00,,
"EGM00062378","1962-07-01",95.00,68.00,0.00,,
"EGM00062378","1962-07-02",93.02,69.98,0.00,,
"EGM00062378","1962-07-03",95.00,68.00,0.00,,
"EGM00062378","1962-07-04",100.04,73.04,0.00,,
"EGM00062378","1962-07-05",93.02,69.98,0.00,,
"EGM00062378","1962-07-06",91.04,68.00,0.00,,
"EGM00062378","1962-07-07",91.04,66.02,0.00,,
"EGM00062378","1962-07-08",102.02,69.98,0.00,,
"EGM00062378","1962-07-09",100.04,71.96,0.00,,
"EGM00062378","1962-07-10",98.96,71.96,0.00,,
"EGM00062378","1962-07-11",96.98,71.96,0.00,,
"EGM00062378","1962-07-12",98.96,69.98,0.00,,
"EGM00062378","1962-07-13",98.96,69.98,0.00,,
"EGM00062378","1962-07-14",100.04,69.98,0.00,,
"EGM00062378","1962-07-15",102.02,71.96,0.00,,
"EGM00062378","1962-07-16",100.04,73.04,0.00,,
"EGM00062378","1962-07-17",100.04,71.96,0.00,,
"EGM00062378","1962-07-18",95.00,71.96,0.00,,
"EGM00062378","1962-07-19",98.96,69.98,0.00,,
"EGM00062378","1962-07-20",91.04,69.98,0.00,,
"EGM00062378","1962-07-21",89.96,69.98,0.00,,
"EGM00062378","1962-07-22",93.02,68.00,0.00,,
"EGM00062378","1962-07-23",95.00,69.98,0.00,,
"EGM00062378","1962-07-24",96.98,69.98,0.00,,
"EGM00062378","1962-07-25",96.98,68.00,0.00,,
"EGM00062378","1962-07-26",100.04,69.98,0.00,,
"EGM00062378","1962-07-27",95.00,71.96,0.00,,
"EGM00062378","1962-07-28",96.98,71.96,0.00,,
"EGM00062378","1962-07-29",100.04,69.98,0.00,,
"EGM00062378","1962-07-30",102.02,71.96,0.00,,
"EGM00062378","1962-07-31",100.04,73.04,0.00,,
"EGM00062378","1962-08-01",98.96,73.04,0.00,,
"EGM00062378","1962-08-02",98.96,71.96,0.00,,
"EGM00062378","1962-08-03",96.98,73.04,0.00,,
"EGM00062378","1962-08-04",98.96,71.96,0.00,,
"EGM00062378","1962-08-05",95.00,69.98,0.00,,
"EGM00062378","1962-08-06",96.98,71.96,0.00,,
"EGM00062378","1962-08-07",100.04,75.02,0.00,,
"EGM00062378","1962-08-08",105.98,75.02,0.00,,
"EGM00062378","1962-08-09",105.98,80.96,0.00,,
"EGM00062378","1962-08-10",109.04,86.00,0.00,,
"EGM00062378","1962-08-11",102.02,75.02,0.00,,
"EGM00062378","1962-08-12",96.98,75.02,0.00,,
"EGM00062378","1962-08-13",96.98,73.04,0.00,,
"EGM00062378","1962-08-14",95.00,68.00,0.00,,
"EGM00062378","1962-08-15",95.00,71.96,0.00,,
"EGM00062378","1962-08-16",98.96,73.04,0.00,,
"EGM00062378","1962-08-17",96.98,75.02,0.00,,
"EGM00062378","1962-08-18",93.02,71.96,0.00,,
"EGM00062378","1962-08-19",96.98,71.96,0.00,,
"EGM00062378","1962-08-20",98.96,71.96,0.00,,
"EGM00062378","1962-08-21",96.98,73.04,0.00,,
"EGM00062378","1962-08-22",96.98,71.96,0.00,,
"EGM00062378","1962-08-23",93.02,71.96,0.00,,
"EGM00062378","1962-08-24",89.96,68.00,0.00,,
"EGM00062378","1962-08-25",91.04,66.02,0.00,,
"EGM00062378","1962-08-26",93.02,69.98,0.00,,
"EGM00062378","1962-08-27",95.00,69.98,0.00,,
"EGM00062378","1962-08-28",95.00,71.96,0.00,,
"EGM00062378","1962-08-29",93.02,69.98,0.00,,
"EGM00062378","1962-08-30",95.00,71.96,0.00,,
"EGM00062378","1962-08-31",95.00,71.96,0.00,,
"EGM00062378","1962-09-01",95.00,69.98,0.00,,
"EGM00062378","1962-09-02",95.00,71.96,0.00,,
"EGM00062378","1962-09-03",95.00,73.04,0.00,,
"EGM00062378","1962-09-04",95.00,73.04,0.00,,
"EGM00062378","1962-09-05",93.02,69.98,0.00,,
"EGM00062378","1962-09-06",93.02,68.00,0.00,,
"EGM00062378","1962-09-07",93.02,68.00,0.00,,
"EGM00062378","1962-09-08",93.02,68.00,0.00,,
"EGM00062378","1962-09-09",93.02,68.00,0.00,,
"EGM00062378","1962-09-10",95.00,68.00,0.00,,
"EGM00062378","1962-09-11",95.00,71.96,0.00,,
"EGM00062378","1962-09-12",91.04,73.04,0.00,,
"EGM00062378","1962-09-13",91.04,73.04,0.00,,
"EGM00062378","1962-09-14",89.96,68.00,0.00,,
"EGM00062378","1962-09-15",89.96,68.00,0.00,,
"EGM00062378","1962-09-16",91.04,66.02,0.00,,
"EGM00062378","1962-09-17",93.02,71.96,0.00,,
"EGM00062378","1962-09-18",89.96,68.00,0.00,,
"EGM00062378","1962-09-19",89.96,68.00,0.00,,
"EGM00062378","1962-09-20",87.98,68.00,0.00,,
"EGM00062378","1962-09-21",89.96,68.00,0.00,,
"EGM00062378","1962-09-22",91.04,62.96,0.00,,
"EGM00062378","1962-09-23",95.00,66.02,0.00,,
"EGM00062378","1962-09-24",96.98,69.98,0.00,,
"EGM00062378","1962-09-25",95.00,69.98,0.00,,
"EGM00062378","1962-09-26",102.02,68.00,0.00,,
"EGM00062378","1962-09-27",93.02,73.04,0.00,,
"EGM00062378","1962-09-28",87.98,69.98,0.00,,
"EGM00062378","1962-09-29",89.96,69.98,0.00,,
"EGM00062378","1962-09-30",95.00,69.98,0.00,,
"EGM00062378","1962-10-01",100.04,69.98,0.00,,
"EGM00062378","1962-10-02",95.00,73.04,0.00,,
"EGM00062378","1962-10-03",95.00,71.96,0.00,,
"EGM00062378","1962-10-04",93.02,69.98,0.00,,
"EGM00062378","1962-10-05",91.04,68.00,0.00,,
"EGM00062378","1962-10-06",89.96,68.00,0.00,,
"EGM00062378","1962-10-07",87.98,68.00,0.00,,
"EGM00062378","1962-10-08",84.02,64.04,0.00,,
"EGM00062378","1962-10-09",84.02,62.96,0.00,,
"EGM00062378","1962-10-10",84.02,62.96,0.00,,
"EGM00062378","1962-10-11",84.02,64.04,0.00,,
"EGM00062378","1962-10-12",86.00,64.04,0.00,,
"EGM00062378","1962-10-13",95.00,69.98,0.00,,
"EGM00062378","1962-10-14",93.02,68.00,0.00,,
"EGM00062378","1962-10-15",89.96,68.00,0.00,,
"EGM00062378","1962-10-16",84.02,66.02,0.00,,
"EGM00062378","1962-10-17",86.00,,0.00,,
"EGM00062378","1962-10-18",89.96,68.00,0.00,,
"EGM00062378","1962-10-19",95.00,69.98,0.00,,
"EGM00062378","1962-10-20",96.98,69.98,0.00,,
"EGM00062378","1962-10-21",95.00,69.98,0.00,,
"EGM00062378","1962-10-22",93.02,68.00,0.00,,
"EGM00062378","1962-10-23",87.98,68.00,0.00,,
"EGM00062378","1962-10-24",80.96,66.02,0.00,,
"EGM00062378","1962-10-25",84.02,60.98,0.00,,
"EGM00062378","1962-10-26",89.96,66.02,0.00,,
"EGM00062378","1962-10-27",84.02,71.96,0.00,,
"EGM00062378","1962-10-28",80.96,60.98,0.00,,
"EGM00062378","1962-10-29",80.96,60.98,0.00,,
"EGM00062378","1962-10-30",82.04,62.96,0.00,,
"EGM00062378","1962-10-31",87.98,68.00,0.00,,
"EGM00062378","1962-11-01",96.98,68.00,0.00,,
"EGM00062378","1962-11-02",89.96,68.00,0.00,,
"EGM00062378","1962-11-03",96.98,78.98,0.00,,
"EGM00062378","1962-11-04",82.04,68.00,0.00,,
"EGM00062378","1962-11-05",78.98,59.00,0.00,,
"EGM00062378","1962-11-06",80.96,57.02,0.00,,
"EGM00062378","1962-11-07",82.04,62.96,0.00,,
"EGM00062378","1962-11-08",78.98,59.00,0.00,,
"EGM00062378","1962-11-09",78.98,59.00,0.00,,
"EGM00062378","1962-11-10",82.04,62.96,0.00,,
"EGM00062378","1962-11-11",86.00,64.04,0.00,,
"EGM00062378","1962-11-12",89.96,68.00,0.00,,
"EGM00062378","1962-11-13",93.02,66.02,0.00,,
"EGM00062378","1962-11-14",86.00,62.96,0.00,,
"EGM00062378","1962-11-15",84.02,64.04,0.00,,
"EGM00062378","1962-11-16",89.96,66.02,0.00,,
"EGM00062378","1962-11-17",86.00,62.96,0.00,,
"EGM00062378","1962-11-18",93.02,66.02,0.00,,
"EGM00062378","1962-11-19",91.04,66.02,0.00,,
"EGM00062378","1962-11-20",86.00,60.98,0.00,,
"EGM00062378","1962-11-21",87.98,62.96,0.00,,
"EGM00062378","1962-11-22",86.00,57.02,0.00,,
"EGM00062378","1962-11-23",82.04,60.98,0.00,,
"EGM00062378","1962-11-24",82.04,57.02,0.00,,
"EGM00062378","1962-11-25",80.96,60.98,0.00,,
"EGM00062378","1962-11-26",80.96,62.96,0.00,,
"EGM00062378","1962-11-27",80.96,60.98,0.00,,
"EGM00062378","1962-11-28",82.04,55.04,0.00,,
"EGM00062378","1962-11-29",86.00,57.02,0.00,,
"EGM00062378","1962-11-30",77.00,53.96,0.00,,
"EGM00062378","1962-12-01",78.98,57.02,0.00,,
"EGM00062378","1962-12-02",78.98,53.96,0.00,,
"EGM00062378","1962-12-03",82.04,53.96,0.00,,
"EGM00062378","1962-12-04",77.00,57.02,0.00,,
"EGM00062378","1962-12-05",68.00,48.02,0.00,,
"EGM00062378","1962-12-06",68.00,46.04,0.00,,
"EGM00062378","1962-12-07",69.98,46.04,0.00,,
"EGM00062378","1962-12-08",68.00,48.02,0.00,,
"EGM00062378","1962-12-09",66.02,48.02,0.00,,
"EGM00062378","1962-12-10",64.04,48.02,0.00,,
"EGM00062378","1962-12-11",64.04,44.96,0.00,,
"EGM00062378","1962-12-12",64.04,44.96,0.00,,
"EGM00062378","1962-12-13",68.00,42.98,0.00,,
"EGM00062378","1962-12-14",71.96,46.04,0.00,,
"EGM00062378","1962-12-15",71.96,50.00,0.00,,
"EGM00062378","1962-12-16",69.98,51.98,0.00,,
"EGM00062378","1962-12-17",69.98,48.02,0.00,,
"EGM00062378","1962-12-18",82.04,57.02,0.00,,
"EGM00062378","1962-12-19",68.00,53.96,0.00,,
"EGM00062378","1962-12-20",66.02,48.02,0.00,,
"EGM00062378","1962-12-21",66.02,46.04,0.00,,
"EGM00062378","1962-12-22",60.98,48.02,0.00,,
"EGM00062378","1962-12-23",64.04,42.98,0.00,,
"EGM00062378","1962-12-24",64.04,44.96,0.00,,
"EGM00062378","1962-12-25",68.00,48.02,0.00,,
"EGM00062378","1962-12-26",66.02,50.00,0.00,,
"EGM00062378","1962-12-27",68.00,50.00,0.00,,
"EGM00062378","1962-12-28",71.96,51.98,0.00,,
"EGM00062378","1962-12-29",68.00,51.98,0.00,,
"EGM00062378","1962-12-30",69.98,50.00,0.00,,
"EGM00062378","1962-12-31",73.04,50.00,0.00,,
"EGM00062378","1963-01-01",73.04,50.00,0.00,,
"EGM00062378","1963-01-02",71.96,53.96,0.00,,
"EGM00062378","1963-01-03",68.00,46.04,0.00,,
"EGM00062378","1963-01-04",69.98,50.00,0.00,,
"EGM00062378","1963-01-05",80.96,53.96,0.00,,
"EGM00062378","1963-01-06",75.02,57.02,0.00,,
"EGM00062378","1963-01-07",78.98,51.98,0.00,,
"EGM00062378","1963-01-08",77.00,51.98,0.00,,
"EGM00062378","1963-01-09",73.04,51.98,0.00,,
"EGM00062378","1963-01-10",68.00,50.00,0.00,,
"EGM00062378","1963-01-11",68.00,50.00,0.00,,
"EGM00062378","1963-01-12",73.04,50.00,0.00,,
"EGM00062378","1963-01-13",82.04,48.02,0.00,,
"EGM00062378","1963-01-14",75.02,53.96,0.00,,
"EGM00062378","1963-01-15",68.00,51.98,0.00,,
"EGM00062378","1963-01-16",68.00,50.00,0.00,,
"EGM00062378","1963-01-17",66.02,46.04,0.00,,
"EGM00062378","1963-01-18",64.04,50.00,0.00,,
"EGM00062378","1963-01-19",69.98,50.00,0.00,,
"EGM00062378","1963-01-20",69.98,42.98,0.00,,
"EGM00062378","1963-01-21",69.98,48.02,0.00,,
"EGM00062378","1963-01-22",75.02,53.96,0.00,,
"EGM00062378","1963-01-23",68.00,53.96,0.00,,
"EGM00062378","1963-01-24",68.00,50.00,0.00,,
"EGM00062378","1963-01-25",60.98,48.02,0.00,,
"EGM00062378","1963-01-26",59.00,41.00,0.00,,
"EGM00062378","1963-01-27",60.98,37.04,0.00,,
"EGM00062378","1963-01-28",62.96,39.02,0.00,,
"EGM00062378","1963-01-29",68.00,44.96,0.00,,
"EGM00062378","1963-01-30",68.00,41.00,0.00,,
"EGM00062378","1963-01-31",71.96,48.02,0.00,,
"EGM00062378","1963-02-01",68.00,50.00,0.00,,
"EGM00062378","1963-02-02",68.00,48.02,0.00,,
"EGM00062378","1963-02-03",71.96,51.98,0.00,,
"EGM00062378","1963-02-04",77.00,44.96,0.00,,
"EGM00062378","1963-02-05",78.98,51.98,0.00,,
"EGM00062378","1963-02-06",78.98,55.04,0.00,,
"EGM00062378","1963-02-07",73.04,55.04,0.00,,
"EGM00062378","1963-02-08",68.00,50.00,0.00,,
"EGM00062378","1963-02-09",68.00,48.02,0.00,,
"EGM00062378","1963-02-10",68.00,51.98,0.00,,
"EGM00062378","1963-02-11",64.04,51.98,51.00,,
"EGM00062378","1963-02-12",66.02,46.04,5.00,,
"EGM00062378","1963-02-13",71.96,48.02,0.00,,
"EGM00062378","1963-02-14",78.98,53.96,0.00,,
"EGM00062378","1963-02-15",73.04,51.98,0.00,,
"EGM00062378","1963-02-16",69.98,48.02,0.00,,
"EGM00062378","1963-02-17",77.00,50.00,0.00,,
"EGM00062378","1963-02-18",82.04,48.02,0.00,,
"EGM00062378","1963-02-19",77.00,57.02,0.00,,
"EGM00062378","1963-02-20",68.00,50.00,0.00,,
"EGM00062378","1963-02-21",73.04,48.02,0.00,,
"EGM00062378","1963-02-22",69.98,51.98,0.00,,